HP1GDP-12 Weather Reports


Display with metric or nautical units.
time (UTC)temp
F
wind
direction
speed
MPH
gust
MPH
rain 1hr
in
rain 24hr
in
rain mn
in
humidity
%
barometer
mb
20260504081856 90 0.0 0.0 0.00 0.00 0.00 44 1003.0
20260504080851 90 0.0 0.0 0.00 0.00 0.00 44 1003.1
20260504050737 89 0.0 0.0 0.00 0.00 0.00 43 1004.7
20260504043725 89 0.0 0.0 0.00 0.00 0.00 43 1005.0
20260504042721 89 0.0 0.0 0.00 0.00 0.00 43 1005.0
20260504041717 89 0.0 0.0 0.00 0.00 0.00 42 1005.0
20260504040713 89 0.0 0.0 0.00 0.00 0.00 41 1005.0
20260504035708 88 0.0 0.0 0.00 0.00 0.00 41 1005.0
20260504034704 88 0.0 0.0 0.00 0.00 0.00 40 1005.1
20260504033700 88 0.0 0.0 0.00 0.00 0.00 40 1005.1
20260504032656 88 0.0 0.0 0.00 0.00 0.00 40 1005.2
20260504031652 87 0.0 0.0 0.00 0.00 0.00 38 1005.2
20260504030647 87 0.0 0.0 0.00 0.00 0.00 37 1005.0
20260504025642 86 0.0 0.0 0.00 0.00 0.00 35 1004.9
20260504024638 86 0.0 0.0 0.00 0.00 0.00 33 1005.0
20260504022630 86 0.0 0.0 0.00 0.00 0.00 34 1004.9
20260504021626 87 0.0 0.0 0.00 0.00 0.00 34 1004.8
20260504020622 87 0.0 0.0 0.00 0.00 0.00 33 1004.7
20260504014614 87 0.0 0.0 0.00 0.00 0.00 30 1004.4
20260504013610 87 0.0 0.0 0.00 0.00 0.00 31 1004.4
20260504012605 87 0.0 0.0 0.00 0.00 0.00 31 1004.3
20260504010557 88 0.0 0.0 0.00 0.00 0.00 35 1004.2
20260504005553 88 0.0 0.0 0.00 0.00 0.00 34 1004.4
20260504004548 89 0.0 0.0 0.00 0.00 0.00 37 1004.4
20260504003544 89 0.0 0.0 0.00 0.00 0.00 38 1004.4
20260504001536 89 0.0 0.0 0.00 0.00 0.00 33 1004.2
20260503235528 90 0.0 0.0 0.00 0.00 0.00 34 1004.0
20260503233519 91 0.0 0.0 0.00 0.00 0.00 34 1003.7
20260503232516 92 0.0 0.0 0.00 0.00 0.00 36 1003.6
20260503231512 93 0.0 0.0 0.00 0.00 0.00 38 1003.4
20260503230507 93 0.0 0.0 0.00 0.00 0.00 41 1003.3
20260503224459 93 0.0 0.0 0.00 0.00 0.00 41 1003.1
20260503223455 93 0.0 0.0 0.00 0.00 0.00 41 1003.1
20260503215439 93 0.0 0.0 0.00 0.00 0.00 41 1003.2
20260503214435 93 0.0 0.0 0.00 0.00 0.00 41 1003.1
20260503213431 93 0.0 0.0 0.00 0.00 0.00 41 1003.1
20260503212426 93 0.0 0.0 0.00 0.00 0.00 41 1003.1
20260503211422 93 0.0 0.0 0.00 0.00 0.00 41 1003.1
20260503210418 93 0.0 0.0 0.00 0.00 0.00 41 1003.2
20260503204410 93 0.0 0.0 0.00 0.00 0.00 41 1003.4
20260503203406 93 0.0 0.0 0.00 0.00 0.00 41 1003.5
20260503202402 92 0.0 0.0 0.00 0.00 0.00 42 1003.6
20260503201358 92 0.0 0.0 0.00 0.00 0.00 42 1003.5
20260503200354 92 0.0 0.0 0.00 0.00 0.00 42 1003.5
20260503195350 92 0.0 0.0 0.00 0.00 0.00 42 1003.6
20260503193341 92 0.0 0.0 0.00 0.00 0.00 42 1003.6
20260503192337 92 0.0 0.0 0.00 0.00 0.00 42 1003.7
20260503191333 92 0.0 0.0 0.00 0.00 0.00 42 1003.7
20260503190328 92 0.0 0.0 0.00 0.00 0.00 42 1004.1
20260503185324 92 0.0 0.0 0.00 0.00 0.00 42 1004.3
20260503184320 92 0.0 0.0 0.00 0.00 0.00 42 1004.4
20260503183317 92 0.0 0.0 0.00 0.00 0.00 43 1004.6
20260503182313 92 0.0 0.0 0.00 0.00 0.00 43 1004.9
20260503180304 92 0.0 0.0 0.00 0.00 0.00 45 1005.1
20260503175300 92 0.0 0.0 0.00 0.00 0.00 45 1005.2
20260503174256 92 0.0 0.0 0.00 0.00 0.00 45 1005.2
20260503173252 92 0.0 0.0 0.00 0.00 0.00 47 1005.2
20260503172247 91 0.0 0.0 0.00 0.00 0.00 46 1005.0
20260503171243 91 0.0 0.0 0.00 0.00 0.00 48 1005.3
20260503170239 91 0.0 0.0 0.00 0.00 0.00 44 1005.6
20260503160215 91 0.0 0.0 0.00 0.00 0.00 39 1006.2
20260503150150 90 0.0 0.0 0.00 0.00 0.00 33 1006.4
20260503131104 90 0.0 0.0 0.00 0.00 0.00 42 1006.0